Retour au catalogue

THORAD AGENA D DEB

ActifLEO
NORAD 4934·DEBRIS·🇺🇸 United States

Lancé Apr 8, 1970 depuis Vandenberg Space Force Base

Loading…

Prochains Passages

TLE

Source: Space-Track
1 04934U 70025GA  26229.86280321  .00000258  00000-0  31936-3 0  9995
2 04934 100.0273 358.8706 0006024  37.9040 113.3890 13.75496018804851

Suivez THORAD AGENA D DEB en temps réel avec AllMySat

Download on the App Store